UATT

Aktobe / Aktyubinsk Airport

Airport
ICAO code
UATT
IATA Code
AKX
Summary
ICAO Region
APAC
ICAO Territory
Location

Aktobe,

Serving
Aktobe
Elevation
738 ft
Coordinates
50° 14' 59" N , 57° 12' 9" E
KCC
Airport BS
Bird Strike
Airport CFIT
Altimeter Temperature Error Correction
Metar
UATT 251330Z 32010MPS CAVOK 20/01 Q1021 NOSIG RMK QFE746/0994

Description

International airport serving the city of Aktobe.

Climatology

Cold Semi-arid climate (Köppen climate classification BSk). - Hot, sometimes extremely hot summers and cold, sometimes very cold winters. Some snowfall during the winter. Areas featuring cold semi-arid climates are sometimes subject to major temperature swings during a 24 hour period.

Runways

Designator Length Width Surface Rops
13/31 3097 60 CON No/No

Airport map

Aerial View

SKYbrary Partners:

Safety knowledge contributed by: